Location: Unspecified
(0.0000°N, 0.0000°E)
Time: 00:01:01
(UTC+01:00)

SJ-6B - Visible Passes

Search period start: 01 March 2015 00:00
Search period end: 11 March 2015 00:00
Orbit: 515 x 594 km, 97.8° (Epoch: 27 February)

Date Brightness Start Highest point End Pass type
(mag) Time Alt. Az. Time Alt. Az. Time Alt. Az.
01 Mar 5.3 06:37:17 10° NE 06:40:40 28° E 06:44:12 10° SSE visible
02 Mar 5.5 06:34:34 10° NE 06:37:51 26° E 06:41:18 10° SSE visible
02 Mar 6.7 20:10:40 10° WSW 20:11:30 10° W 20:12:01 10° W visible
03 Mar 5.7 06:31:53 10° NE 06:35:02 23° E 06:38:22 10° SSE visible
03 Mar 6.5 20:07:10 10° WSW 20:08:40 11° W 20:09:52 10° W visible
04 Mar 5.9 06:29:11 10° NE 06:32:12 21° E 06:35:24 10° SSE visible
04 Mar 6.4 20:03:56 10° SW 20:05:49 13° W 20:07:27 10° WNW visible
05 Mar 6.0 06:26:32 10° NE 06:29:23 20° E 06:32:26 10° SSE visible
05 Mar 6.3 20:00:47 10° SW 20:02:59 14° W 20:04:57 10° WNW visible
06 Mar 6.1 06:23:52 10° ENE 06:26:32 18° E 06:29:25 10° SE visible
06 Mar 6.2 19:57:41 10° SW 20:00:08 15° W 20:02:22 10° WNW visible
07 Mar 6.2 06:21:14 10° ENE 06:23:42 16° E 06:26:23 10° SE visible
07 Mar 6.1 19:54:38 10° SW 19:57:17 17° W 19:59:45 10° WNW visible
08 Mar 6.3 06:18:39 10° ENE 06:20:51 15° E 06:23:18 10° SE visible
08 Mar 6.0 19:51:35 10° SSW 19:54:26 19° W 19:57:05 10° WNW visible
09 Mar 6.4 06:16:06 10° ENE 06:18:00 13° E 06:20:11 10° SE visible
09 Mar 5.8 19:48:35 10° SSW 19:51:34 21° W 19:54:24 10° NW visible
10 Mar 6.5 06:13:37 10° ENE 06:15:09 12° E 06:16:58 10° SE visible
10 Mar 5.6 19:45:35 10° SSW 19:48:42 23° W 19:51:41 10° NW visible
